Location: Wallasey
(53.4265°N, 3.0662°W)
Time: 23:33:13
(UTC+01:00)

NOAA 18 - Pass Details

Date: 18 September 2019
Orbit: 841 x 861 km, 99.1° (Epoch: 17 October)

Event Time Altitude Azimuth Distance (km) Brightness Sun altitude
Exits shadow 22:00:13 14° 196° (SSW) 2,230 7.2 -22.7°
Maximum altitude 22:04:40 40° 262° (W) 1,242 6.3 -23.2°
Drops below altitude 10° 22:09:54 10° 332° (NNW) 2,511 8.6 -23.8°
Sets 22:12:27 0° 340° (NNW) 3,453 9.4 -24.1°
